Weather Roundup
Issued by NWS Springfield, MO

Home | Current Version | Previous Version | Text Only | Print | Product List | Glossary On
Versions: 1 2 3 4 5 6 7 8 9 10 11 12 13 14 15 16 17 18 19 20 21 22 23 24 25 26 27 28 29 30 31 32 33 34 35 36 37 38 39 40 41 42 43 44 45 46 47 48 49 50
000
NZUS99 KSGF 311307
HRRSGF

HOURLY WEATHER
NATIONAL WEATHER SERVICE SPRINGFIELD MO
800 AM CDT MON AUG 31 2015

......SGF CWA......

CITY           SKY/WX    TMP DP  RH WIND       PRES   REMARKS
SPRINGFIELD    MOSUNNY   72  67  84 SE9       30.05R
JOPLIN         SUNNY     73  67  81 S9        30.02R
WEST PLAINS    CLOUDY    71  68  90 S5        30.11R FOG
ROLLA          MOSUNNY   72  67  84 S10       30.06R
OSAGE BEACH    SUNNY     72  66  83 SE5       30.05R
BRANSON        MOSUNNY   72  66  83 SE8       30.08R

......SURROUNDING SGF CWA......

CITY           SKY/WX    TMP DP  RH WIND       PRES   REMARKS
CHANUTE        SUNNY     69  68  96 SE5       30.00R FOG
PARSONS        SUNNY     70  68  93 SE3       30.00R
COFFEYVILLE    SUNNY     68  67  96 SE3       29.99R
EMPORIA        FOG       65  65 100 S7        29.98R VSB 1/4
GROVE OK       SUNNY     70  70 100 CALM      30.03R
ROGERS AR      SUNNY     72  67  84 S6        30.07R
SILOAM SPRINGS SUNNY     73  63  68 S7        30.04R
NEAR YELLVILLE SUNNY     70  64  83 CALM      30.06R

......KANSAS AND MISSOURI......

CITY           SKY/WX    TMP DP  RH WIND       PRES   REMARKS
KANSAS CTY INT PTSUNNY   71  70  96 S6        29.99R FOG
DOWNTOWN KC    PTSUNNY   76  71  85 SW3       29.98R
COLUMBIA       SUNNY     72  70  93 S6        30.04R
SEDALIA        SUNNY     73  69  87 S8        30.03R
ST JOSEPH      MOSUNNY   68  67  96 CALM      29.98R FOG
ST LOUIS       PTSUNNY   77  69  76 S5        30.07R
SPIRIT OF STL  MOSUNNY   75  71  87 CALM      30.05R
KIRKSVILLE     SUNNY     71  68  90 SE3       30.04R FOG
WICHITA        PTSUNNY   71  67  87 SE7       29.96R
TOPEKA         PTSUNNY   66  66 100 CALM      29.98R FOG
OLATHE         MOSUNNY   70  69  97 S6        29.99R FOG

......TENNESSEE......

CITY           SKY/WX    TMP DP  RH WIND       PRES   REMARKS
MEMPHIS        MOSUNNY   73  67  81 SE6       30.09R
NASHVILLE      MOSUNNY   71  64  78 NE3       30.15R

......ARKANSAS.......

CITY           SKY/WX    TMP DP  RH WIND       PRES   REMARKS
FAYETTEVILLE   SUNNY     71  68  90 CALM      30.07R
FT SMITH       MOSUNNY   73  69  87 E5        30.04R FOG
LITTLE ROCK    MOSUNNY   74  71  91 CALM      30.06R

......OKLAHOMA.......

CITY           SKY/WX    TMP DP  RH WIND       PRES   REMARKS
TULSA          MOSUNNY   75  68  78 S8        29.97R
PONCA CITY     SUNNY     69  66  90 SE5       29.96R FOG
MCALESTER      PTSUNNY   74  68  81 CALM      30.03R
OKLAHOMA CITY  MOSUNNY   68  64  87 S8        29.99R

......IOWA............

CITY           SKY/WX    TMP DP  RH WIND       PRES   REMARKS
DES MOINES     SUNNY     69  65  86 SE9       29.98S FOG
QUAD CITIES    SUNNY     65  62  90 CALM      30.05R FOG

......ILLINOIS........

CITY           SKY/WX    TMP DP  RH WIND       PRES   REMARKS
QUINCY         SUNNY     72  70  93 S5        30.04S FOG
CHICAGO        MOSUNNY   63  63 100 CALM      30.07R FOG



USA.gov is the U.S. government's official web portal to all federal, state and local government web resources and services.